Location: Unspecified
(43.8044°N, 11.0278°E)
Time: 01:26:55
(UTC+02:00)

Cosmos 2058 - Visible Passes

Search period start: 04 September 2015 00:00
Search period end: 14 September 2015 00:00
Orbit: 566 x 588 km, 82.5° (Epoch: 02 September)

Date Brightness Start Highest point End Pass type
(mag) Time Alt. Az. Time Alt. Az. Time Alt. Az.
04 Sep 6.2 00:42:59 10° NNW 00:43:07 11° NNW 00:43:07 11° NNW visible
04 Sep 5.7 23:10:36 10° NNE 23:10:59 12° NNE 23:10:59 12° NNE visible
05 Sep 5.7 23:14:34 10° N 23:15:08 13° NNE 23:15:08 13° NNE visible
06 Sep 5.7 23:18:37 10° N 23:19:18 14° N 23:19:18 14° N visible
07 Sep 5.7 23:22:43 10° N 23:23:28 15° N 23:23:28 15° N visible
08 Sep 5.8 23:26:53 10° N 23:27:38 15° N 23:27:38 15° N visible
09 Sep 5.8 23:31:06 10° NNW 23:31:49 15° NNW 23:31:49 15° NNW visible
10 Sep 5.9 23:35:23 10° NNW 23:36:01 14° NNW 23:36:01 14° NNW visible
11 Sep 5.5 22:03:34 10° NNE 22:03:56 11° NNE 22:03:56 11° NNE visible
11 Sep 6.0 23:39:43 10° NNW 23:40:13 13° NNW 23:40:13 13° NNW visible
12 Sep 5.4 22:07:23 10° NNE 22:08:09 14° NNE 22:08:09 14° NNE visible
12 Sep 6.1 23:44:08 10° NNW 23:44:26 12° NNW 23:44:26 12° NNW visible
13 Sep 5.3 22:11:19 10° NNE 22:12:22 16° NNE 22:12:22 16° NNE visible
13 Sep 6.3 23:48:38 10° NW 23:48:40 10° NW 23:48:40 10° NW visible
